Flag for Germany Weather past 2 weeks in Schwerte, North Rhine-Westphalia, Germany

50 °F

Light rain. Partly sunny.

Feels Like: 43 °F
Forecast: 42 / 52 °F
Wind: 25 mph from Southwest

Location: Dortmund / Wickede

Current Time: Nov 29, 2015 at 3:57:25 PM

Latest Report: Nov 29, 2015 at 3:20 PM

Visibility: N/A

Pressure: 29.71 "Hg

Humidity: 76%

Dew point: 43 °F

Location of SchwerteLocation

Historic Weather in Schwerte — Graph


Schwerte temperature yesterday

Maximum temperature yesterday: 45 °F (at 1:50 PM)
Minimum temperature yesterday: 37 °F (at 5:20 AM)
Average temperature yesterday: 41 °F

Past Weeks' High & Low Weather Summary

High59 °F (Nov 17, 9:20 PM)94% (Nov 15, 6:50 PM)30.24 "Hg (Nov 15, 6:50 PM)
Low32 °F (Nov 22, 6:20 AM)58% (Nov 18, 5:20 PM)29.39 "Hg (Nov 21, 5:20 AM)
Average44 °F77%29.84 "Hg
* Reported Nov 14 2:20 PM — Nov 29 2:20 PM, Schwerte, Weather by CustomWeather, © 2015

Note: Actual official high and low records may vary slightly from our data, if they occured in-between our weather recording intervals... More about our weather records


Schwerte weather history for previous 24 hours

Time TempWeatherWind HumidityBarometerVisibility
2:20 PM
Sun, Nov 29
48 °FLight rain. Partly sunny.20 mph82%29.74 "Hg5 mi
1:50 PM48 °FSprinkles. Partly sunny.21 mph76%29.77 "Hg6 mi
1:20 PM48 °FScattered clouds.23 mph76%29.77 "HgN/A
12:50 PM50 °FScattered clouds.22 mph71%29.77 "HgN/A
12:20 PM48 °FScattered clouds.21 mph76%29.77 "HgN/A
11:50 AM48 °FPartly sunny.22 mph76%29.77 "HgN/A
11:20 AM48 °FScattered clouds.21 mph76%29.77 "HgN/A
10:50 AM48 °FScattered showers. Partly sunny.22 mph76%29.77 "HgN/A
10:20 AM46 °FSprinkles. Partly sunny.18 mph82%29.77 "HgN/A
9:50 AM46 °FSprinkles. Partly sunny.16 mph82%29.77 "HgN/A
9:20 AM46 °FSprinkles. Partly sunny.21 mph76%29.77 "HgN/A
8:50 AM46 °FPassing clouds.22 mph76%29.77 "HgN/A
7:20 AM46 °FPassing clouds.21 mph76%29.77 "HgN/A
5:20 AM45 °FSprinkles. Passing clouds.23 mph81%29.74 "HgN/A
10:50 PM
Sat, Nov 28
41 °FPassing clouds.21 mph76%29.83 "HgN/A
9:50 PM39 °FPassing clouds.17 mph75%29.86 "HgN/A
9:20 PM41 °FSprinkles. Passing clouds.17 mph70%29.89 "HgN/A
8:50 PM41 °FPassing clouds.20 mph70%29.89 "HgN/A
8:20 PM41 °FPassing clouds.21 mph70%29.89 "HgN/A
7:50 PM41 °FSprinkles. Passing clouds.20 mph66%29.89 "HgN/A
7:20 PM41 °FClear.17 mph66%29.92 "Hg10 mi
6:50 PM41 °FClear.15 mph66%29.92 "Hg10 mi
6:20 PM41 °FClear.18 mph66%29.92 "Hg10 mi
5:50 PM39 °FClear.18 mph70%29.95 "Hg10 mi
5:20 PM41 °FPassing clouds.16 mph70%29.95 "HgN/A
4:50 PM39 °FPassing clouds.14 mph70%29.95 "HgN/A
4:20 PM41 °FPassing clouds.15 mph66%29.95 "HgN/A
3:50 PM41 °FPassing clouds.15 mph70%29.92 "HgN/A
3:20 PM43 °FScattered clouds.14 mph66%29.92 "HgN/A
Weather by CustomWeather, © 2015

See weather overviewHow to use our weather pages